Theta_e
319 319 318 318 318 319 319 319 320 320 320 320 320 320 320 320 321 321 322 322 321 321 322 323 325 327 328 324 328 351 364 361 354 351 344 339 337 336 330 331 331 329 327 330 332 331 331
317 318 318 318 318 318 318 318 319 319 319 319 319 319 320 319 320 320 321 321 320 320 321 323 325 327 325 319 343 351 350 352 350 345 341 341 336 339 336 333 330 332 330 329 329 331 331
318 318 318 318 318 318 318 318 318 318 318 318 318 319 319 320 319 320 319 319 319 320 322 323 326 329 318 320 343 347 348 348 349 343 338 340 342 339 339 332 335 333 325 327 328 330 329
316 318 318 318 318 317 317 318 318 318 318 318 318 318 318 318 319 318 318 317 319 325 324 325 328 328 317 333 346 345 346 346 350 347 343 346 346 342 338 338 331 324 325 318 326 329 330
317 316 317 317 317 317 317 317 318 318 318 318 318 317 317 317 317 317 316 316 321 328 326 328 328 319 318 341 335 342 346 342 346 346 347 346 345 337 334 325 323 321 315 316 319 329 328
317 317 317 317 317 317 317 318 318 318 318 317 317 317 316 315 316 315 315 316 325 325 328 329 323 314 317 321 333 339 342 342 339 340 339 338 336 329 327 322 313 316 315 316 316 321 326
316 317 317 316 317 317 318 318 318 318 317 316 316 315 315 314 315 314 317 323 321 319 318 312 313 313 316 330 339 337 340 339 338 336 327 333 324 319 320 322 321 320 317 315 318 322 321
316 317 317 317 317 318 318 318 317 316 316 316 315 315 314 314 313 313 318 320 317 318 313 317 317 316 318 319 314 331 339 331 331 324 327 324 318 321 322 320 319 319 316 315 318 321 322
317 317 317 318 318 318 317 317 317 317 316 316 315 314 314 313 312 316 322 319 322 321 314 313 315 315 315 317 314 319 333 330 326 322 322 319 321 322 320 317 316 318 315 314 314 318 322
317 318 317 318 317 317 317 317 317 316 316 315 314 314 313 311 313 322 320 320 323 321 309 309 312 315 317 316 312 320 329 328 324 319 321 320 323 318 317 315 318 314 318 316 315 315 311
318 318 318 317 317 317 317 316 316 316 315 315 314 313 311 308 319 320 318 323 322 318 298 310 311 319 316 313 313 314 323 322 317 318 318 316 318 317 315 316 319 315 318 316 316 315 315
318 318 318 317 317 317 316 316 315 314 314 314 313 311 311 315 321 317 323 322 318 306 297 307 311 310 311 313 313 315 317 324 320 315 318 317 322 318 317 318 318 319 316 316 317 316 309
318 318 317 317 316 316 316 315 314 314 313 312 311 309 312 318 318 324 324 318 306 300 308 305 307 310 309 308 310 311 313 313 309 307 309 314 315 318 318 315 319 317 313 307 307 308 307
318 317 317 317 316 316 316 315 314 313 313 311 309 309 312 320 325 322 319 311 299 303 305 310 308 309 306 309 309 309 310 310 313 312 310 308 307 315 318 315 313 315 313 307 302 304 308
317 317 317 316 316 316 316 315 313 312 312 310 308 324 326 322 325 321 314 303 303 304 307 306 308 305 306 308 308 309 308 309 309 310 308 309 308 317 317 318 317 313 309 315 309 311 307
317 317 317 316 316 316 316 314 313 312 311 310 327 327 321 321 324 317 309 300 306 308 308 308 303 305 303 306 307 307 307 310 309 311 312 310 305 314 314 314 315 312 315 307 309 302 302
317 317 317 317 316 316 316 314 312 311 310 310 326 320 321 321 320 315 307 307 307 310 310 306 305 305 306 305 306 306 306 309 311 311 311 310 308 309 311 310 309 310 309 310 310 310 305
316 316 316 316 316 316 316 314 312 310 308 315 324 316 318 321 316 315 310 306 301 309 311 309 310 308 307 307 306 306 304 308 312 313 309 312 308 305 308 313 313 311 310 311 306 305 309
316 316 316 316 316 316 316 314 311 309 309 317 318 313 317 320 309 309 309 307 307 308 308 308 308 309 310 307 304 306 307 311 311 312 311 313 307 302 305 309 311 309 311 311 311 310 306
316 317 317 316 316 316 315 314 311 309 309 316 313 308 311 311 311 304 302 303 303 307 307 308 308 310 308 307 310 307 307 309 311 311 316 313 307 305 301 305 309 306 309 310 309 305 306
316 316 316 316 316 316 315 314 311 310 309 316 309 305 305 303 305 304 304 303 302 302 306 306 306 305 305 302 304 304 307 309 311 313 311 311 304 307 307 308 308 307 306 307 307 309 305
317 317 316 316 316 316 316 314 312 310 308 312 306 304 308 307 303 302 299 302 300 301 301 300 301 304 304 301 303 302 305 306 305 309 309 310 304 306 304 307 307 305 307 307 308 308 308
318 317 316 315 316 315 315 314 313 310 310 310 310 313 308 298 303 301 300 300 298 301 302 303 302 301 299 301 305 306 307 306 306 304 304 305 304 303 299 305 304 301 305 307 308 310 309
318 318 318 317 316 315 315 315 313 311 309 312 309 310 306 303 303 300 298 299 299 300 299 301 302 300 303 309 307 305 304 304 305 305 306 302 303 303 298 301 293 304 311 310 309 310 312
318 318 318 317 316 315 314 314 314 312 310 312 311 308 306 303 304 301 300 300 301 302 300 301 302 305 307 304 299 298 299 299 301 302 302 305 303 299 296 297 301 303 307 308 308 308 315
317 317 317 317 317 316 315 314 314 313 310 314 311 312 308 303 304 301 301 300 298 299 300 301 305 307 305 302 299 294 294 296 295 299 307 306 303 299 298 294 293 303 309 313 312 303 317
314 313 313 314 315 316 315 315 314 313 311 312 312 311 308 303 308 304 302 300 301 300 299 301 302 302 304 300 296 295 295 299 293 295 297 300 302 296 296 295 300 307 310 315 301 305 317
311 311 311 312 313 315 315 315 314 312 311 311 312 314 307 306 308 306 304 302 302 301 297 302 300 301 300 296 297 298 297 299 298 301 299 298 298 298 299 296 294 310 310 306 313 316 318
310 311 311 311 312 314 315 315 314 313 311 310 312 314 312 303 307 310 308 308 306 306 302 302 302 301 304 300 302 301 298 300 299 294 304 296 300 299 301 302 310 316 314 317 316 317 317
Wind_Speed
18 19 19 20 20 20 19 20 19 18 19 20 20 20 19 19 19 19 19 17 17 14 13 11 8 5 7 7 6 11 15 15 15 11 8 3 2 5 6 4 3 8 1 4 5 7 7
19 19 19 20 21 21 22 21 21 20 19 20 21 20 20 20 19 19 19 19 19 15 12 10 7 4 7 5 4 15 17 17 10 10 7 4 6 7 7 6 6 10 8 7 4 9 8
19 20 20 20 21 21 22 22 22 22 21 20 21 21 20 20 21 19 20 20 21 16 11 8 7 6 8 5 3 13 15 13 10 7 5 2 5 8 11 6 4 9 9 6 5 8 5
19 19 20 20 20 21 21 21 22 22 22 21 21 21 21 21 22 21 19 20 19 13 5 7 8 6 5 2 7 12 12 9 10 6 4 3 5 10 6 8 5 5 7 7 7 6 5
20 20 21 21 21 21 21 22 23 22 21 21 21 21 21 21 21 21 19 19 14 5 3 9 8 7 2 4 8 12 13 8 11 8 6 5 7 7 8 9 2 6 11 13 6 8 5
20 21 21 22 22 21 21 22 22 22 22 21 20 21 22 21 19 20 21 10 2 4 5 7 4 7 9 3 6 10 10 7 6 8 8 8 7 11 10 6 10 13 14 12 10 4 9
20 21 22 22 23 22 22 22 23 23 24 23 21 21 20 20 19 17 15 6 7 8 8 7 3 5 5 6 7 8 12 13 8 8 12 7 10 9 10 8 9 12 12 12 11 8 7
21 21 22 23 23 23 24 24 24 25 25 25 23 21 19 19 18 17 8 2 6 7 6 4 7 9 9 5 4 8 11 12 12 14 5 9 12 6 5 7 9 11 12 12 9 8 8
21 22 22 22 23 24 25 25 24 23 23 23 22 19 17 17 17 8 2 7 6 4 7 4 2 5 3 8 11 11 14 11 12 14 10 15 16 3 13 12 12 13 9 13 15 18 10
22 22 23 24 25 25 26 26 26 25 23 21 19 16 13 14 6 2 3 3 8 5 6 5 4 5 4 4 9 14 17 10 9 15 17 13 8 8 12 13 11 14 11 12 16 15 11
22 23 24 25 25 26 27 27 27 26 24 22 18 12 7 6 4 2 5 8 1 6 7 4 4 4 1 9 6 8 12 17 20 17 10 17 13 11 13 11 9 13 9 12 12 15 11
23 24 25 25 26 27 27 28 28 27 25 21 17 7 5 4 3 4 8 5 6 8 3 3 1 3 4 5 5 2 7 13 9 20 21 18 11 9 15 9 8 12 14 14 12 10 11
23 24 25 26 27 28 29 29 29 29 26 22 15 0 5 2 5 9 7 5 7 6 3 3 3 5 2 3 3 6 9 14 13 14 19 21 22 18 9 14 15 10 14 11 9 9 6
23 24 25 26 27 29 30 31 30 29 26 22 10 3 3 2 5 8 6 7 5 3 3 2 4 6 2 5 4 3 8 8 8 13 14 15 17 20 14 16 16 16 13 11 10 10 9
24 25 26 27 28 30 31 31 32 30 27 20 5 4 2 9 4 5 7 7 6 4 6 9 11 9 5 3 6 3 3 3 4 5 11 11 17 12 9 13 15 15 13 18 20 17 9
24 25 27 29 30 31 33 32 32 33 29 18 4 2 8 11 5 7 7 3 1 5 7 4 6 2 8 5 9 5 3 3 2 2 5 3 11 13 7 7 15 15 8 9 12 17 17
24 25 27 28 29 32 34 35 33 34 33 14 5 3 9 10 5 5 2 4 2 4 7 5 6 8 7 7 6 10 3 4 5 5 5 7 7 8 7 13 14 9 13 13 16 12 14
23 24 26 28 29 31 34 37 34 35 36 7 4 1 10 8 1 2 3 5 2 3 4 2 6 7 8 7 10 7 6 5 6 7 8 2 9 12 14 4 4 11 15 16 12 18 13
22 23 24 26 28 30 33 35 37 33 26 8 4 4 7 8 3 4 3 1 3 6 4 5 4 3 4 8 7 3 4 4 4 5 6 7 9 11 16 15 10 10 9 14 13 11 16
20 22 23 24 26 28 30 32 35 36 28 6 3 1 4 6 3 7 6 3 3 2 3 6 8 7 8 11 9 8 8 1 4 6 5 6 14 18 15 17 11 10 10 9 10 12 12
20 21 21 22 23 25 27 30 34 35 33 6 7 5 5 5 6 8 4 4 7 5 3 4 4 3 7 7 11 15 13 11 13 5 9 9 18 19 19 20 21 21 21 21 19 17 18
18 18 19 20 20 22 23 25 29 34 33 9 6 6 3 3 3 7 3 4 7 6 5 6 8 10 10 12 14 18 18 13 13 12 12 14 16 18 20 18 22 25 25 25 26 25 21
17 17 18 19 19 20 20 21 24 28 22 6 4 1 5 3 8 6 5 6 6 8 2 6 8 11 14 14 12 14 16 18 19 19 17 18 15 16 20 17 19 26 25 27 27 26 23
15 15 15 16 18 18 18 17 19 22 18 4 4 5 5 4 5 6 6 8 10 11 12 12 14 13 4 11 17 20 22 23 23 24 20 21 19 14 19 18 25 17 18 17 18 18 23
14 15 15 14 14 16 17 16 15 15 18 5 4 5 4 6 8 3 6 9 11 10 13 13 7 6 8 11 11 10 9 15 20 24 25 23 20 17 19 19 23 23 9 12 17 20 13
14 14 15 15 13 13 14 14 13 10 12 5 4 4 4 7 5 5 9 7 9 10 11 6 4 7 6 6 7 6 6 9 6 3 6 13 22 18 18 20 23 21 14 15 17 18 13
17 17 17 16 14 11 11 11 11 10 9 7 3 5 4 6 4 6 7 7 4 6 7 8 4 6 4 6 8 10 11 7 7 9 8 8 11 20 18 20 20 14 10 2 17 5 8
15 16 16 16 15 13 9 9 8 6 7 7 3 3 5 5 11 6 6 10 8 6 7 5 9 7 5 6 5 5 7 7 9 11 12 14 13 15 17 22 28 13 7 16 9 2 2
15 15 15 15 15 13 10 8 7 5 2 4 3 1 3 5 9 14 17 18 17 16 10 5 9 6 4 5 4 5 8 8 13 16 14 17 18 18 21 12 4 4 10 3 6 7 3
Wind_Direction
10 6 3 359 356 354 353 350 349 346 342 339 338 335 333 332 332 329 325 322 319 319 309 303 294 275 251 241 63 126 141 159 178 176 183 190 331 330 354 350 273 242 357 233 221 195 213
9 5 0 357 354 352 350 347 345 344 342 339 335 332 330 330 330 328 325 320 315 313 301 290 278 252 259 268 71 148 161 175 185 193 185 228 352 337 284 304 293 337 302 283 227 202 190
8 5 0 357 353 350 347 344 341 340 338 337 334 330 328 327 327 327 325 319 313 308 289 266 231 245 256 359 123 163 173 188 187 216 218 246 317 310 332 309 327 303 294 197 207 189 181
8 3 1 355 351 348 344 341 338 335 333 333 331 329 327 326 326 323 323 318 313 306 254 217 201 238 299 70 142 168 180 188 200 214 276 284 292 290 268 316 218 272 221 16 117 195 155
7 2 359 354 350 345 341 337 335 331 330 329 327 326 325 324 323 319 320 316 302 10 152 161 208 250 150 151 183 176 190 188 193 217 240 280 267 290 258 286 310 36 9 16 71 184 173
6 1 356 352 347 342 336 333 331 329 327 325 324 324 324 323 320 318 314 281 264 243 195 222 261 242 168 127 137 175 200 184 193 203 228 238 234 269 227 354 6 341 351 355 7 101 223
4 359 355 348 344 338 335 332 330 328 328 325 323 323 322 320 318 319 318 204 208 181 202 298 41 314 97 105 160 186 181 189 197 219 248 181 275 290 5 357 329 308 320 344 9 15 280
3 357 351 346 341 337 334 333 331 331 328 324 323 321 319 317 315 314 277 320 44 354 292 190 259 275 266 271 260 170 191 208 207 235 196 232 250 341 334 297 289 299 311 350 344 27 289
1 355 349 345 342 338 335 334 331 327 323 321 322 319 317 313 312 277 345 63 355 286 262 130 192 266 270 216 242 197 200 214 232 249 233 263 292 341 293 299 296 295 338 346 331 330 251
359 354 351 348 343 339 337 336 333 329 328 325 323 318 316 311 280 112 105 344 313 238 255 98 143 117 178 254 245 231 201 230 216 257 259 262 299 284 288 287 287 298 4 327 326 323 331
358 354 352 348 344 341 339 338 336 334 334 331 327 316 307 303 356 204 15 319 278 225 222 80 98 73 259 251 1 163 220 225 246 240 227 250 243 265 279 290 314 298 334 313 312 305 299
357 354 351 348 345 343 342 341 341 340 340 338 337 318 236 185 218 24 315 292 229 228 117 136 274 320 247 181 218 125 199 237 263 247 252 256 280 268 279 304 276 300 288 280 253 269 273
356 354 351 348 347 347 346 345 345 345 344 344 345 253 226 288 22 332 301 224 231 272 144 87 352 326 301 28 180 229 199 197 226 219 232 239 243 237 247 252 262 245 262 267 255 235 252
356 355 352 350 351 350 349 348 347 347 345 342 336 217 139 10 314 318 248 233 259 43 353 17 300 279 316 335 107 216 219 201 229 274 280 245 237 221 227 240 263 275 288 277 265 263 275
357 355 354 354 353 352 352 350 348 348 345 339 326 189 62 1 336 282 248 233 22 15 352 333 294 268 187 168 295 244 250 299 20 310 265 256 241 246 260 251 260 264 231 251 268 268 256
358 358 356 356 355 352 353 352 350 348 345 339 255 248 40 349 316 256 242 28 105 12 335 290 296 354 310 6 298 292 208 83 269 354 307 327 269 247 263 252 244 252 306 224 221 252 262
359 358 357 357 356 355 353 350 352 351 344 338 236 237 26 345 262 235 266 62 104 45 352 317 319 290 302 307 314 309 356 88 349 317 293 303 251 254 190 222 248 184 229 232 270 261 251
359 358 358 358 358 357 356 349 354 355 343 312 299 231 9 321 250 356 44 2 303 346 350 300 276 293 294 314 295 282 283 350 6 324 284 337 299 269 262 260 286 289 287 272 242 234 229
358 357 358 358 358 359 359 351 349 355 359 314 15 19 26 311 29 60 96 157 335 336 0 333 297 335 332 292 290 255 276 102 354 309 337 357 252 268 249 216 206 231 232 254 275 281 264
356 356 358 358 0 1 359 354 350 348 347 304 327 344 54 55 33 348 355 14 307 49 294 324 309 287 297 271 246 282 274 151 300 271 8 289 269 273 277 289 330 280 238 234 268 272 247
352 355 356 357 360 2 0 358 352 348 341 297 3 53 12 13 40 357 335 336 320 332 348 308 219 330 323 282 282 265 270 287 277 173 259 259 273 274 273 278 281 279 270 269 253 254 267
346 348 353 356 359 2 2 1 359 351 337 49 16 344 345 335 316 316 127 58 323 350 310 305 296 337 309 289 299 308 307 289 281 294 273 269 268 272 268 273 268 267 262 257 255 255 253
340 341 346 351 355 0 0 4 6 2 345 39 27 128 290 114 338 319 30 3 341 329 264 278 308 305 290 296 313 292 289 282 275 282 279 285 275 264 262 264 273 259 252 256 258 254 252
333 336 339 346 348 353 359 5 11 11 1 8 23 287 309 346 325 350 312 314 298 307 285 296 301 283 316 319 288 265 256 256 253 251 247 252 258 261 266 272 253 258 271 264 271 263 243
329 332 336 338 341 343 349 360 13 16 356 22 9 326 337 304 324 256 312 299 302 280 265 287 296 313 309 289 285 281 248 227 240 248 244 238 246 252 256 249 259 262 244 274 244 257 218
331 330 334 334 331 333 336 347 1 18 358 321 39 324 308 308 63 324 308 304 298 305 287 224 253 291 285 262 259 257 285 334 276 265 231 242 229 240 242 246 250 266 262 323 237 253 180
335 333 330 327 323 320 325 332 344 359 1 321 47 357 285 290 275 287 275 320 305 278 268 284 306 273 232 248 261 272 272 248 270 275 287 252 238 228 238 252 258 264 258 345 222 269 119
331 329 329 324 322 314 312 312 322 336 358 328 6 4 326 289 289 256 255 264 250 235 280 32 276 176 243 257 269 276 264 271 267 268 276 273 256 239 232 247 244 242 272 232 11 95 149
326 326 325 320 316 314 304 292 292 308 336 311 282 345 313 256 292 315 276 267 258 273 301 245 295 298 317 282 253 275 273 271 272 274 285 259 250 266 271 256 274 316 284 58 317 272 246